[[{"header":{"parameterUnit":"m.s-1","parameterCategory":1,"la1":30.2991,"la2":30.254,"lo1":-89.0895,"lo2":-89.0444,"dy":0.0017,"dx":0.0017,"nx":28,"ny":28,"refTime":"2025-04-28T09:00:00:Z","depth":0,"parameterNumber":2,"parameterNumberName":"U-component_of_WINDS"},"data":[0,0,0,0,0,0,0,0,0,0,0,0,0,0,0,0,0,0,0,0,0,0,0,0,0,0,0,0,0,0,0,0,0,0,0,0,0,0,0,0,0,0,0,0,0,0,0,0,0,0,0,0,0,0,0,0,0,0,0.6744,0.6746,0,0.6924,0.6926,0.6928,0.7011,0.7011,0.7011,0.701,0.7194,0.7198,0.7203,0,0,0,0,0,0,0,0,0,0,0,0,0,0.6471,0.6475,0.6744,0.6746,0.6748,0.6923,0.6926,0.6928,0.7011,0.7011,0.701,0.701,0.7192,0.7198,0.7204,0,0,0,0,0,0,0,0,0,0,0,0,0,0.6614,0.6477,0.6744,0.6811,0.6819,0.6923,0.6926,0.6929,0.7011,0.7011,0.701,0.701,0.719,0.7197,0.7205,0.7256,0,0,0.7228,0.7231,0,0,0,0,0,0,0,0,0.6605,0.6624,0.6799,0.6806,0.6815,0.6945,0.6897,0.7038,0.7011,0.6938,0.701,0.701,0.7111,0.7125,0.7159,0.7264,0.7272,0.7228,0.7233,0.7236,0.7238,0,0,0,0,0,0,0,0.6595,0.6616,0.6815,0.6801,0.6811,0.6831,0.6851,0.6924,0.7023,0.6944,0.6951,0.6971,0.7115,0.7152,0.7164,0.7275,0.7228,0.7235,0.7239,0.7242,0.743,0.7431,0,0,0,0,0,0,0.6575,0.6608,0.6809,0.682,0.6708,0.6836,0.6859,0.6903,0.7023,0.7041,0.6971,0.6974,0.7139,0.7155,0.7171,0.7239,0.7236,0.7243,0.7247,0.743,0.7431,0.7431,0,0,0,0,0,0,0.6569,0.6592,0.6802,0.6716,0.6744,0.6841,0.6891,0.6907,0.6943,0.7043,0.7061,0.699,0.7139,0.716,0.7234,0.7246,0.7246,0.7253,0.7429,0.743,0.7431,0.7374,0,0,0,0,0,0,0.656,0.6589,0.661,0.6716,0.6748,0.6863,0.6891,0.6911,0.6956,0.6962,0.7065,0.7082,0.7141,0.7222,0.7241,0.7256,0.7259,0.7429,0.743,0.7431,0.7375,0.7373,0.737,0,0,0,0,0,0.655,0.6587,0.6611,0.6635,0.6776,0.6863,0.6882,0.6948,0.6957,0.6978,0.7042,0.7079,0.7241,0.7229,0.7251,0.7269,0.7428,0.7429,0.7431,0.7376,0.7373,0.7371,0,0,0,0,0,0,0.648,0.6602,0.663,0.6701,0.6771,0.6877,0.6906,0.6943,0.7012,0.7014,0.7094,0.7116,0.7183,0.7233,0.7218,0.7324,0.7338,0.7344,0.7289,0.7287,0.7285,0.7272,0.7265,0,0,0,0,0,0.6472,0.6533,0.6636,0.6689,0.6723,0.6808,0.6848,0.6894,0.6969,0.6999,0.7068,0.714,0.7207,0.725,0.7317,0.7382,0.7406,0.7405,0.7403,0.74,0.7405,0.7443,0.7444,0.7435,0.7435,0.7435,0,0,0.6458,0.6532,0.6565,0.6677,0.6736,0.6797,0.6833,0.6895,0.6941,0.7009,0.7083,0.7136,0.7221,0.729,0.7325,0.7334,0.7412,0.7402,0.7399,0.7405,0.7444,0.7445,0.7446,0.7435,0.7435,0.7435,0,0,0.6463,0.6525,0.6576,0.6635,0.6725,0.6781,0.6793,0.6893,0.6931,0.7007,0.7059,0.7114,0.7228,0.7287,0.7331,0.7357,0.7394,0.7377,0.7365,0.7401,0.7402,0.7403,0.7413,0.7415,0.738,0.738,0.738,0,0.6434,0.6528,0.6598,0.6658,0.6705,0.6769,0.6821,0.6875,0.6981,0.7013,0.7022,0.7166,0.7228,0.7312,0.7318,0.7352,0.7369,0.7366,0.7396,0.7398,0.74,0.741,0.7414,0.7378,0.7378,0.7378,0.7378,0,0.6487,0.6551,0.6582,0.6684,0.6735,0.679,0.6868,0.6911,0.6951,0.7006,0.7082,0.7159,0.7242,0.7266,0.7306,0.7356,0.7359,0.7381,0.7397,0.7397,0.7408,0.7412,0.7374,0.7375,0.7376,0.7376,0,0,0.6454,0.6593,0.6603,0.665,0.6754,0.6804,0.6862,0.6945,0.698,0.7051,0.7102,0.7196,0.7217,0.7268,0.7315,0.7347,0.7363,0.7365,0.7368,0.7363,0.7423,0.7406,0.7409,0.7387,0.7388,0.7389,0.7416,0,0.6474,0.6582,0.6646,0.6728,0.6788,0.6849,0.6899,0.6968,0.702,0.7079,0.7137,0.7203,0.7225,0.7256,0.729,0.7353,0.7376,0.7352,0.7435,0.7438,0.7413,0.7415,0.7398,0.742,0.7421,0.7421,0.7422,0,0.6512,0.6581,0.6669,0.6765,0.6793,0.6837,0.6918,0.6973,0.7051,0.7087,0.7143,0.719,0.7254,0.7263,0.7352,0.7334,0.7372,0.7408,0.741,0.7421,0.743,0.7427,0.7428,0.7432,0.7429,0.7429,0.7428,0,0.6479,0.6595,0.6662,0.67,0.6814,0.6844,0.6893,0.6971,0.7016,0.7086,0.7116,0.7192,0.7234,0.7292,0.7358,0.7359,0.744,0.7455,0.7472,0.747,0.7487,0.7485,0.7495,0.7509,0.7509,0.7509,0.7509,0,0.6495,0.6546,0.6649,0.6691,0.675,0.6823,0.6879,0.6933,0.7002,0.7054,0.7111,0.7159,0.7244,0.7302,0.7354,0.7419,0.7438,0.7469,0.7482,0.7464,0.746,0.7491,0.7491,0.751,0.751,0.751,0.751,0,0.6469,0.654,0.6618,0.6719,0.6745,0.6784,0.6871,0.6913,0.6968,0.7034,0.7054,0.7141,0.7213,0.7284,0.738,0.7415,0.748,0.7498,0.7454,0.7461,0.7474,0.7472,0.7505,0.7513,0.752,0.752,0.752,0,0.6475,0.6516,0.6621,0.6661,0.6708,0.6771,0.6817,0.689,0.6936,0.7028,0.706,0.7135,0.72,0.7312,0.7383,0.7457,0.7477,0.7484,0.7489,0.747,0.7478,0.7475,0.748,0.7481,0.7481,0.7481,0.748,0,0.6478,0.6511,0.6576,0.6653,0.6707,0.6771,0.6837,0.6866,0.6951,0.7,0.7074,0.7124,0.7222,0.7297,0.7379,0.7429,0.7469,0.7478,0.7486,0.7468,0.7441,0.7457,0.7448,0.7477,0.7477,0.7478,0.7478,0.7478,0.6469,0.6508,0.6588,0.6658,0.6716,0.6776,0.6821,0.6882,0.6945,0.7031,0.707,0.7144,0.7221,0.7336,0.7385,0.7444,0.7455,0.7466,0.7469,0.7471,0.7467,0.7431,0.7459,0.7459,0.746,0.746,0.746,0,0.6475,0.653,0.6593,0.6684,0.6739,0.6772,0.6846,0.689,0.6955,0.7024,0.7086,0.7171,0.7244,0.732,0.7397,0.743,0.745,0.7447,0.7446,0.7457,0.7453,0.7439,0.743,0.743,0.743,0.743,0.743,0.743,0.6485,0.6553,0.6595,0.6692,0.6747,0.682,0.686,0.6916,0.6971,0.7063,0.7124,0.7173,0.7246,0.7328,0.7396,0.7416,0.7442,0.7435,0.7461,0.7455,0.7457,0.7459,0.7447,0.744,0.744,0.746,0.746,0.7461]},{"header":{"parameterUnit":"m.s-1","parameterCategory":1,"la1":30.2991,"la2":30.254,"lo1":-89.0895,"lo2":-89.0444,"dy":0.0017,"dx":0.0017,"nx":28,"ny":28,"refTime":"2025-04-28T09:00:00:Z","depth":0,"parameterNumber":3,"parameterNumberName":"V-component_of_WINDS"},"data":[0,0,0,0,0,0,0,0,0,0,0,0,0,0,0,0,0,0,0,0,0,0,0,0,0,0,0,0,0,0,0,0,0,0,0,0,0,0,0,0,0,0,0,0,0,0,0,0,0,0,0,0,0,0,0,0,0,0,3.5451,3.5452,0,3.5498,3.5498,3.5499,3.5465,3.5463,3.5462,3.546,3.5502,3.5505,3.5507,0,0,0,0,0,0,0,0,0,0,0,0,0,3.5327,3.533,3.5451,3.5452,3.5452,3.5498,3.5498,3.5499,3.5465,3.5463,3.5461,3.546,3.5502,3.5505,3.5508,0,0,0,0,0,0,0,0,0,0,0,0,0,3.5378,3.5331,3.5451,3.5441,3.5441,3.5497,3.5498,3.5499,3.5465,3.5463,3.5461,3.5459,3.5501,3.5504,3.5508,3.5575,0,0,3.5519,3.5521,0,0,0,0,0,0,0,0,3.5375,3.5383,3.5442,3.5442,3.5442,3.5473,3.547,3.5524,3.5466,3.5456,3.546,3.5458,3.5494,3.5498,3.5512,3.5577,3.5579,3.552,3.5522,3.5524,3.5525,0,0,0,0,0,0,0,3.5372,3.538,3.5469,3.5443,3.5443,3.5432,3.5437,3.548,3.5487,3.5457,3.5454,3.546,3.5494,3.5508,3.5512,3.558,3.552,3.5523,3.5525,3.5527,3.5702,3.5704,0,0,0,0,0,0,3.537,3.5378,3.5468,3.5471,3.5402,3.5436,3.5442,3.5465,3.5486,3.5487,3.5462,3.5459,3.5503,3.5508,3.5514,3.5593,3.5524,3.5527,3.5529,3.5699,3.5702,3.5705,0,0,0,0,0,0,3.5367,3.5378,3.5466,3.5424,3.5434,3.5441,3.5468,3.5467,3.5482,3.5491,3.5491,3.5476,3.5501,3.5508,3.556,3.5594,3.5529,3.5532,3.5697,3.57,3.5704,3.5754,0,0,0,0,0,0,3.5364,3.5378,3.5405,3.5425,3.5437,3.5514,3.547,3.547,3.5489,3.5485,3.5504,3.5505,3.55,3.5555,3.5564,3.5598,3.5535,3.5694,3.5698,3.5702,3.5749,3.5759,3.5767,0,0,0,0,0,3.536,3.5416,3.5406,3.5418,3.5471,3.5516,3.5523,3.5518,3.5492,3.5518,3.5524,3.5504,3.5589,3.5561,3.5571,3.5607,3.5691,3.5697,3.5702,3.5745,3.5757,3.5767,0,0,0,0,0,0,3.5398,3.5419,3.5408,3.5473,3.5493,3.551,3.5543,3.553,3.5557,3.5551,3.5542,3.5547,3.5601,3.5609,3.5577,3.5672,3.5636,3.5644,3.5665,3.5677,3.5685,3.5682,3.5538,0,0,0,0,0,3.5415,3.5452,3.5467,3.5522,3.5533,3.5537,3.5556,3.5551,3.557,3.5578,3.5587,3.5606,3.5636,3.5657,3.5686,3.575,3.5753,3.578,3.5788,3.5796,3.5802,3.5836,3.5847,3.5723,3.5723,3.5723,0,0,3.5448,3.5464,3.5488,3.553,3.5546,3.5582,3.5544,3.5584,3.5611,3.5584,3.5634,3.5641,3.5661,3.5719,3.5745,3.5727,3.5837,3.5803,3.5808,3.5811,3.5843,3.5854,3.5865,3.5726,3.5726,3.5725,0,0,3.5529,3.5545,3.5593,3.5609,3.5633,3.5635,3.5646,3.5665,3.5669,3.572,3.57,3.573,3.5784,3.5799,3.5813,3.5898,3.5881,3.5908,3.5954,3.5987,3.5996,3.6005,3.6035,3.6045,3.5914,3.5914,3.5914,0,3.5567,3.5623,3.5618,3.5661,3.5679,3.5658,3.5705,3.572,3.5752,3.5764,3.5744,3.5811,3.5822,3.5883,3.5904,3.5917,3.5928,3.5905,3.5996,3.6004,3.6012,3.604,3.6051,3.5917,3.5917,3.5917,3.5916,0,3.5669,3.5708,3.5743,3.5776,3.5798,3.5843,3.5843,3.5866,3.5858,3.5861,3.5912,3.5926,3.5957,3.5971,3.5963,3.603,3.6018,3.5997,3.596,3.6027,3.6053,3.6064,3.5922,3.5921,3.592,3.5919,0,0,3.5775,3.5804,3.5817,3.5831,3.5856,3.5885,3.5927,3.5959,3.5979,3.6001,3.6035,3.6081,3.6061,3.6078,3.6071,3.61,3.6165,3.6075,3.6075,3.6091,3.6239,3.6255,3.6268,3.6154,3.6156,3.6158,3.6238,0,3.5855,3.5932,3.5929,3.5999,3.6034,3.6014,3.6051,3.6069,3.6073,3.6102,3.6105,3.6138,3.611,3.6119,3.6147,3.6152,3.6195,3.6146,3.6185,3.6186,3.618,3.6282,3.6298,3.6373,3.6248,3.625,3.6251,0,3.596,3.5988,3.6062,3.6081,3.6096,3.6129,3.6157,3.6186,3.6205,3.6205,3.6224,3.6213,3.6254,3.6216,3.6272,3.6238,3.6254,3.6258,3.6261,3.6264,3.6222,3.6287,3.6397,3.6408,3.6267,3.6266,3.6265,0,3.6029,3.6085,3.6136,3.6149,3.6172,3.6196,3.6206,3.6223,3.6243,3.6267,3.6279,3.6307,3.6322,3.6343,3.6339,3.6312,3.6395,3.6357,3.6395,3.6396,3.6413,3.6412,3.6527,3.6424,3.6424,3.6424,3.6424,0,3.612,3.6166,3.6168,3.6199,3.625,3.6245,3.6294,3.6301,3.6317,3.6348,3.6332,3.6361,3.6354,3.6382,3.6379,3.6425,3.6432,3.6432,3.6431,3.6434,3.6434,3.6443,3.6438,3.6427,3.6426,3.6426,3.6425,0,3.6206,3.6209,3.6264,3.6281,3.6287,3.6323,3.6337,3.6366,3.6369,3.6409,3.6417,3.6421,3.6454,3.6452,3.6488,3.6486,3.6542,3.6535,3.6537,3.6535,3.6573,3.6569,3.6697,3.6714,3.6601,3.6602,3.6603,0,3.6263,3.6299,3.6321,3.6341,3.6354,3.6387,3.6407,3.6402,3.6423,3.6447,3.6473,3.6504,3.6529,3.6582,3.6587,3.6614,3.6607,3.665,3.6611,3.6613,3.6607,3.6605,3.6608,3.6658,3.6659,3.666,3.6661,0,3.6365,3.6365,3.6395,3.6425,3.645,3.6473,3.6494,3.6512,3.6509,3.6533,3.6567,3.6587,3.6624,3.6655,3.6681,3.669,3.6675,3.6673,3.6683,3.6686,3.6686,3.6686,3.6557,3.667,3.6669,3.6669,3.6668,3.6668,3.6438,3.6468,3.6488,3.6522,3.6538,3.6558,3.6586,3.6593,3.6622,3.6653,3.6648,3.6686,3.6702,3.6736,3.6748,3.6776,3.676,3.6775,3.6779,3.6782,3.6786,3.6682,3.678,3.678,3.678,3.678,3.678,0,3.6538,3.655,3.6581,3.6612,3.6638,3.6623,3.6646,3.6668,3.6702,3.672,3.6745,3.6784,3.6814,3.6821,3.6849,3.687,3.6864,3.6878,3.6876,3.6878,3.6799,3.6787,3.6882,3.6882,3.6882,3.6882,3.6882,3.6882,3.6593,3.6644,3.6646,3.6702,3.6713,3.6752,3.6766,3.6784,3.6798,3.6842,3.6868,3.6873,3.6885,3.6914,3.694,3.6942,3.6952,3.6969,3.6967,3.6894,3.6883,3.6874,3.6862,3.6972,3.6972,3.7044,3.7044,3.7045]}]]